Location: Unspecified
(0.0000°N, 0.0000°E)
Time: 11:23:42
(UTC+00:00)

Vanguard 2 - Pass Details

Date: 14 October 2022
Orbit: 553 x 2933 km, 32.9° (Epoch: 29 November)

Event Time Altitude Azimuth Distance (km) Brightness Sun altitude
Rises 05:16:52 0° 231° (SW) 3,111 10.2 -7.2°
Reaches altitude 10° 05:19:29 10° 228° (SW) 2,011 9.3 -6.6°
Maximum altitude 05:23:47 65° 146° (SE) 614 7.3 -5.5°
Drops below altitude 10° 05:27:42 10° 63° (ENE) 1,834 10.5 -4.5°
Sets 05:30:00 0° 60° (ENE) 2,805 11.4 -4.0°
